SDA_1677 (65987 NORAD) Tracking and Keplerian Element Data

This shows tracking and keplerian element data for the satellite.

Feedback or suggestion? Click here.




ElementValue
Catalog65987
NameSDA_1677
Epoch Orbit902
Epoch Day354.11146182
Epoch Year2025
RAAN17.7865
Inclination81.299
Eccentricity0.0001204
Argument of Perigee285.3329
Mean Anonmoly74.7694
Mean Motion13.84675629
Decay Rate-8.25E-06
L11 65987U 25230P 25354.11146182 -.00000825 00000+0 -74475-3 0 9996
L22 65987 81.2990 17.7865 0001204 285.3329 74.7694 13.84675629 9028



Live tracking and technical data element details for SDA_1677 (NORAD 65987). SDA_1677 can be tracked NOW for your location showing map with azimuth and elevation plus other details from your city location.







IsCatalogInMostPopularTable: catalog: 65987, numindb: 7
Update: records affected: 1



GetName: 65987 SDA_1677

Hit Count: updated at: Wed, 15 Apr 2026 01:43:07 GMT